STAMFORD HARBOR AT STAMFORD CT US USARMY-COE current weather conditions

sailwx.info

Wind from 099 at 0 knots

Air temperature 23.9° C

Last reported at 2019-Jun-16 23:00 UTC.
Time now 2019-Jun-17 16:56 UTC

Location: N 41°02' W 073°32'.
View on Google Maps.

See reports from other nearby stations

  
Tides and Currents Weather Stations Pressure Air Temp Water Temp Dewpoint Dewpoint Depression Visibility Wind Speed Wind Dir Waves Ship Positions
date/time (UTC)wind fromknots sea level pressurealtimeterstation pressurevisibilityair tempwater tempwave heightnotes
2019-Jun-16 23:00 099 0 23.9
2019-Jun-16 22:30 081 1 23.9
2019-Jun-16 22:00 012 23.9
2019-Jun-16 21:30 152 1 24.2
2019-Jun-16 21:00 148 2 23.0
2019-Jun-16 20:30 236 1 23.2
2019-Jun-16 20:00 205 3 22.9
2019-Jun-16 19:30 176 4 23.5
2019-Jun-16 19:00 179 6 22.7
2019-Jun-16 18:30 176 5 22.8
2019-Jun-16 18:00 298 24.0
2019-Jun-16 17:30 091 3 23.0
2019-Jun-16 17:00 200 3 23.8
2019-Jun-16 16:30 179 2 24.2
2019-Jun-16 16:00 203 4 23.3
2019-Jun-16 15:30 223 5 22.8
2019-Jun-16 15:00 211 4 22.2
2019-Jun-16 14:30 214 6 21.6
2019-Jun-16 14:00 209 3 20.6
2019-Jun-16 13:30 209 2 20.0
2019-Jun-16 13:00 203 2 19.6
2019-Jun-16 12:30 193 2 19.7
2019-Jun-16 12:00 205 3 19.3
2019-Jun-16 11:30 175 1 19.4
2019-Jun-16 11:00 201 1 19.2
2019-Jun-16 10:30 219 2 19.2
2019-Jun-16 10:00 199 3 19.1
2019-Jun-16 09:30 210 4 19.3
2019-Jun-16 09:00 208 2 19.3
2019-Jun-16 08:30 185 2 19.2
2019-Jun-16 08:00 202 2 19.2
2019-Jun-16 07:30 211 3 19.6
2019-Jun-16 07:00 237 2 19.7
2019-Jun-16 06:30 227 5 20.1
2019-Jun-16 06:00 219 6 20.7
2019-Jun-16 05:30 218 7 20.9
2019-Jun-16 05:00 216 6 20.6
2019-Jun-16 04:30 207 7 20.9
2019-Jun-16 04:00 203 10 21.4
2019-Jun-16 03:30 213 6 21.1
2019-Jun-16 03:00 207 4 20.9
2019-Jun-16 02:30 226 3 20.9
2019-Jun-16 02:00 220 9 21.7
2019-Jun-16 01:30 215 6 21.7
2019-Jun-16 01:00 219 5 21.4
2019-Jun-16 00:30 227 3 21.5
2019-Jun-16 00:00 214 6 21.3
2019-Jun-15 23:30 199 11 22.4
2019-Jun-15 23:00 204 13 22.7
2019-Jun-15 22:30 204 10 22.6
2019-Jun-15 22:00 201 13 23.4
2019-Jun-15 21:30 204 14 24.1
2019-Jun-15 21:00 196 11 24.2
2019-Jun-15 20:30 194 12 24.2
2019-Jun-15 20:00 209 12 24.4
2019-Jun-15 19:30 206 12 23.9
2019-Jun-15 19:00 205 13 23.9
2019-Jun-15 18:30 203 11 23.7
2019-Jun-15 18:00 202 8 23.8
2019-Jun-15 17:30 195 9 23.5
2019-Jun-15 17:00 210 10 22.6
2019-Jun-15 16:30 205 7 23.1
2019-Jun-15 16:00 203 6 22.4